Location: NJAA Observatory
(40.6819°N, 74.8979°W)
Time: 12:55:04
(UTC-04:00)

Cosmos 2237 Rocket - Visible Passes

Search period start: 30 April 2016 00:00
Search period end: 10 May 2016 00:00
Orbit: 836 x 849 km, 71.0° (Epoch: 29 April)

Date Brightness Start Highest point End Pass type
(mag) Time Alt. Az. Time Alt. Az. Time Alt. Az.
30 Apr 3.8 01:06:24 26° ENE 01:06:24 26° ENE 01:09:12 10° NE visible
30 Apr 3.4 02:48:13 31° NW 02:48:13 31° NW 02:53:08 10° N visible
01 May 3.9 00:51:43 25° ENE 00:51:43 25° ENE 00:54:21 10° NE visible
01 May 3.3 02:33:32 32° NW 02:33:32 32° NW 02:38:20 10° N visible
02 May 3.9 00:37:00 23° ENE 00:37:00 23° ENE 00:39:29 10° NE visible
02 May 3.3 02:18:49 33° NW 02:18:49 33° NW 02:23:33 10° N visible
03 May 4.0 00:22:16 22° ENE 00:22:16 22° ENE 00:24:36 10° NE visible
03 May 3.3 02:04:04 35° NW 02:04:04 35° NW 02:08:46 10° N visible
04 May 4.0 00:07:28 21° ENE 00:07:28 21° ENE 00:09:44 10° NE visible
04 May 3.3 01:49:17 36° NW 01:49:17 36° NW 01:53:58 10° N visible
04 May 4.0 23:52:39 20° ENE 23:52:39 20° ENE 23:54:51 10° NE visible
05 May 3.2 01:34:27 38° NW 01:34:27 38° NW 01:39:11 10° N visible
05 May 4.0 23:37:48 20° ENE 23:37:48 20° ENE 23:39:57 10° NE visible
06 May 3.2 01:19:36 39° NW 01:19:36 39° NW 01:24:24 10° N visible
06 May 3.9 23:22:54 20° ENE 23:22:54 20° ENE 23:25:04 10° NE visible
07 May 3.1 01:04:41 41° NW 01:04:41 41° NW 01:09:36 10° N visible
07 May 3.9 23:07:56 19° ENE 23:07:56 19° ENE 23:10:10 10° NE visible
08 May 3.0 00:49:43 44° NW 00:49:43 44° NW 00:54:48 10° NNE visible
08 May 3.8 22:52:55 20° ENE 22:52:55 20° ENE 22:55:16 10° NE visible
09 May 2.9 00:34:42 46° WNW 00:34:42 46° WNW 00:40:00 10° NNE visible
09 May 3.8 22:37:50 20° ENE 22:37:50 20° ENE 22:40:21 10° NE visible
